Wind_Speed
11 11 12 11 11 12 10 10 12 12 11 10 9 7 6 6 5 4 4 5 5 5 7 6 3 6 7 3 3 5 5 7 8 6 4 3 3 3 3 4 5 7 8 8 10 12 11 10 9 7 9 10 10 9 8 7 7 6 5 4 3 2 1 2 4 5 5 5 5 6 7 7 7 7 8 8 8 9 9 10 11 12 13 14 14
13 11 11 12 12 12 11 11 11 12 12 10 10 8 7 8 7 5 6 6 6 6 7 6 3 4 7 3 1 3 4 7 7 6 5 5 4 4 4 3 4 6 7 7 9 11 12 11 9 6 7 10 11 10 9 8 8 8 6 5 5 4 2 1 2 5 5 5 5 5 6 6 7 7 7 7 7 8 8 9 10 11 12 13 13
14 11 11 12 12 11 9 9 10 11 10 10 10 8 7 8 8 6 6 7 7 7 7 8 6 5 7 4 1 3 4 7 9 8 7 7 7 6 5 5 4 4 6 6 8 10 11 11 9 6 5 7 10 10 10 9 8 9 7 7 6 5 4 2 1 3 5 5 5 5 5 5 6 6 6 7 7 7 8 8 9 10 11 12 12
13 11 10 11 12 11 9 8 10 11 8 8 8 7 6 5 6 6 8 9 8 11 10 8 7 6 7 5 5 6 3 5 10 11 10 10 10 8 6 6 5 4 5 6 7 9 10 11 10 7 5 6 9 9 10 10 10 9 9 9 7 6 5 4 3 1 3 4 5 5 5 5 5 5 5 6 6 6 7 7 8 9 10 11 11
13 11 10 11 10 9 8 7 7 8 7 8 7 6 6 5 5 6 10 11 6 9 12 9 8 7 6 3 4 5 2 2 5 7 12 13 11 10 7 6 6 5 5 5 6 7 9 11 10 9 6 6 9 8 7 8 10 10 10 10 10 9 7 5 4 2 2 4 4 5 5 5 4 4 4 5 5 5 6 6 7 8 9 9 10
13 12 11 10 8 6 7 6 6 7 8 10 9 6 5 4 4 6 8 10 8 10 10 10 9 7 6 4 3 4 3 3 4 4 7 16 13 9 8 8 7 6 6 6 6 7 8 9 10 9 8 7 9 9 6 6 9 10 10 11 12 12 11 8 7 5 3 4 4 5 5 5 4 3 3 3 4 4 4 5 5 6 7 8 9
11 13 12 8 8 8 7 6 7 7 7 8 5 4 6 4 5 9 11 11 11 11 10 10 10 9 7 7 4 3 2 2 3 4 4 10 13 9 8 8 8 7 6 6 7 7 8 9 10 10 9 8 9 10 9 8 8 9 10 11 12 13 14 11 9 7 5 4 5 5 5 5 5 4 3 3 3 3 3 3 4 4 5 6 7
10 11 13 9 7 10 8 7 7 6 6 6 5 7 10 6 5 9 11 12 12 11 9 8 8 7 6 6 5 3 3 1 3 3 3 5 7 8 9 8 7 7 7 7 8 8 8 9 9 10 11 10 9 9 10 10 9 9 9 11 12 12 14 14 11 10 8 6 5 5 6 6 5 4 4 3 3 3 3 3 3 3 4 5 7
8 9 11 8 4 9 8 7 6 4 6 7 9 13 14 8 4 5 9 11 11 9 7 6 6 6 4 4 5 3 3 2 1 4 3 3 4 3 6 9 10 8 8 8 9 9 9 10 10 10 11 11 11 9 9 11 10 9 10 10 12 12 12 14 13 11 10 8 7 6 6 7 7 6 5 4 3 3 3 3 3 3 3 4 5
7 6 6 5 3 7 7 7 6 5 8 9 11 14 13 10 5 5 6 8 9 8 6 6 5 5 4 3 3 3 3 3 2 3 4 5 5 3 2 5 9 12 12 10 10 10 10 11 11 11 12 12 12 11 9 10 10 10 10 10 12 12 12 12 13 12 11 10 9 7 5 5 6 6 5 4 3 3 3 3 3 3 3 4 4
6 4 4 4 4 5 6 8 7 5 8 11 12 13 12 10 8 6 7 8 9 10 9 7 5 4 3 2 2 3 3 3 3 4 4 5 6 7 4 1 3 6 11 14 14 13 12 13 12 13 13 13 13 12 11 10 10 11 12 12 12 13 11 10 11 13 12 10 10 9 7 5 5 5 5 4 4 3 3 3 3 4 4 4 4
6 5 4 5 4 3 6 8 7 6 9 13 14 13 12 12 11 8 8 8 9 11 10 8 7 6 3 3 3 4 4 3 3 4 5 5 5 6 6 4 2 1 3 9 13 13 15 16 16 15 15 14 13 14 13 12 11 12 14 14 13 13 12 9 9 11 14 13 11 11 10 7 5 5 4 3 4 3 3 4 4 5 5 5 5
5 5 4 4 4 3 4 6 8 9 9 11 13 12 11 11 12 11 9 9 10 10 10 9 7 5 3 3 3 3 3 3 3 4 5 6 6 5 4 4 5 4 2 2 4 5 8 13 16 19 18 17 15 15 15 14 13 13 14 15 14 13 13 12 9 9 12 13 12 12 12 10 8 7 5 4 4 4 4 4 4 5 5 5 6
4 5 4 2 4 5 5 4 5 6 8 8 10 11 11 10 11 12 10 9 9 8 8 8 5 3 2 1 0 1 1 1 1 2 5 5 6 6 5 4 5 7 7 6 5 4 3 5 8 13 19 20 19 18 18 17 16 15 15 16 16 15 14 14 13 10 10 12 12 13 13 13 11 9 8 8 6 5 5 5 5 5 5 5 6
5 6 7 6 6 7 7 6 5 6 8 9 8 8 9 10 10 11 10 8 7 7 7 6 5 5 3 1 0 1 1 1 4 2 2 4 5 6 6 5 5 5 5 5 6 6 6 6 5 5 10 16 19 20 20 20 20 19 17 16 16 16 15 15 16 14 11 11 12 13 15 14 12 11 11 11 10 8 7 6 6 5 6 6 6
8 8 9 10 9 8 7 6 7 6 7 9 7 6 6 9 10 9 10 9 7 6 6 6 6 5 3 1 1 2 1 1 4 4 2 0 1 2 3 3 3 3 3 4 7 6 6 7 7 5 5 8 13 17 18 19 22 22 21 19 18 17 16 16 16 16 14 13 12 12 15 15 14 12 12 13 12 11 9 8 7 7 7 7 7
12 12 10 10 9 8 9 9 9 7 7 9 10 9 8 6 5 7 8 8 8 6 5 6 6 5 4 3 2 1 1 1 3 3 2 1 0 0 1 1 1 1 2 4 7 7 6 5 6 9 9 8 9 12 14 15 18 21 23 23 21 20 19 18 18 18 17 16 14 13 14 15 14 13 13 13 13 12 11 10 9 9 9 8 8
13 13 12 12 12 11 11 13 13 13 12 13 13 12 11 11 8 6 6 7 8 9 7 6 7 7 5 5 3 2 2 1 1 1 2 2 1 1 1 1 1 1 1 2 3 5 5 5 4 6 9 11 11 11 12 13 14 16 19 21 22 22 22 21 20 20 20 19 18 16 15 15 16 15 14 14 13 13 12 12 11 11 10 10 10
12 13 14 13 13 12 13 15 16 18 18 18 15 13 12 12 11 10 8 7 9 10 8 6 5 6 6 5 3 2 1 0 1 1 1 1 1 1 2 4 5 5 3 2 2 3 6 7 6 5 5 6 10 12 13 14 16 17 17 18 19 20 22 23 23 22 21 20 19 18 17 17 18 17 17 16 15 15 15 14 14 13 13 12 11
11 11 13 13 14 15 16 17 16 16 18 18 15 14 14 13 12 12 11 10 9 10 11 8 7 6 5 5 3 1 0 0 1 2 2 1 1 1 1 3 5 5 4 3 3 4 6 8 6 5 5 4 5 8 9 10 13 15 16 16 16 18 19 20 22 23 23 22 21 20 19 19 19 19 19 18 18 18 18 18 17 16 16 15 14
12 11 12 12 13 17 17 15 13 12 12 13 13 13 13 13 13 13 13 12 11 12 13 10 8 8 6 6 4 2 2 2 1 2 2 2 1 2 2 3 5 6 4 4 3 3 5 7 6 6 6 7 7 7 7 8 9 11 12 12 13 14 16 17 19 21 23 23 23 22 21 20 20 21 21 21 21 21 21 20 20 19 18 18 17
14 14 13 12 13 15 16 15 13 12 12 13 12 12 12 12 12 12 13 14 13 13 14 13 12 11 8 7 6 5 3 2 2 1 0 1 0 2 4 7 6 5 4 3 3 4 6 6 8 7 4 6 11 11 10 10 10 10 9 9 9 10 13 15 16 18 20 22 23 23 23 22 21 23 23 23 23 23 23 22 22 22 21 20 19
15 14 14 13 13 15 16 15 14 14 14 15 14 13 13 12 11 11 12 13 14 14 14 15 15 15 13 11 10 9 7 6 7 7 6 4 2 2 6 10 8 7 7 7 6 6 9 9 10 10 8 9 12 12 11 12 12 12 12 10 8 8 9 11 13 15 17 18 19 20 21 22 23 24 25 25 24 24 24 24 23 23 22 21 20
15 14 15 15 15 15 16 15 14 14 14 13 13 13 12 12 12 11 11 11 11 11 12 13 13 15 15 13 11 10 9 9 8 9 7 5 4 3 7 9 7 9 12 9 7 7 9 10 9 11 11 11 12 13 13 12 12 12 12 11 8 7 7 8 10 12 13 14 14 15 16 18 21 24 26 27 25 24 24 24 23 23 22 21 20
15 15 16 15 14 14 15 14 14 14 13 12 12 12 12 13 14 13 13 12 10 10 11 11 12 13 13 11 10 9 9 8 6 7 6 6 7 6 6 8 5 9 12 10 10 8 9 13 13 13 10 10 11 9 11 11 9 7 5 7 7 6 6 7 8 9 11 12 13 13 14 15 17 20 24 26 26 25 25 25 25 24 23 22 22
15 15 16 15 12 11 13 14 15 15 13 11 11 12 13 13 14 14 14 13 12 12 11 11 12 11 10 9 7 7 7 6 4 4 4 5 7 6 5 6 4 7 9 10 11 9 10 14 16 17 16 16 18 13 5 2 3 4 3 3 4 4 5 6 7 9 10 11 12 12 14 15 15 17 19 22 24 26 27 27 26 25 24 23 24
13 14 14 13 11 10 11 13 14 15 14 12 10 10 10 12 13 14 14 13 12 13 12 12 13 11 9 8 7 7 6 5 4 3 3 3 5 5 5 4 3 5 6 8 10 8 9 13 12 14 17 17 18 17 13 9 7 7 4 2 3 4 6 8 9 10 11 12 12 12 13 14 15 16 17 18 19 22 25 26 27 27 27 26 26
12 13 13 11 10 9 10 11 12 13 14 13 11 8 9 11 12 12 12 10 10 12 12 12 12 11 9 7 7 7 6 5 5 5 6 5 4 5 7 7 4 3 4 5 7 5 8 14 11 11 16 17 15 13 12 11 11 10 7 4 5 7 7 8 9 10 11 13 13 12 12 12 13 14 16 17 18 19 20 22 25 27 28 28 28
12 13 13 11 8 8 9 9 10 12 13 12 10 8 8 10 11 11 10 8 8 9 10 10 10 10 9 6 5 6 6 6 7 8 9 8 6 6 7 8 6 4 2 3 4 4 8 15 12 11 17 17 14 13 11 11 11 10 9 8 8 8 7 7 8 9 10 12 13 13 13 13 14 15 16 16 17 18 19 20 22 24 25 27 29
13 13 13 11 9 8 9 9 9 11 11 9 9 8 7 8 9 9 9 8 7 7 6 6 7 8 8 7 4 4 5 6 6 6 8 8 7 5 4 5 5 5 3 2 3 4 9 16 15 15 20 20 18 17 14 12 12 10 10 11 11 11 11 10 10 10 10 11 13 14 15 16 17 18 18 19 19 19 19 18 19 21 23 24 26
14 13 13 12 10 9 9 9 9 11 11 9 9 9 8 7 8 9 8 9 8 7 6 4 5 7 8 7 4 3 4 4 3 4 4 4 5 4 3 4 3 4 4 3 1 4 10 16 17 19 22 22 21 18 15 14 13 12 12 12 12 13 13 13 13 13 13 12 12 15 17 19 19 19 19 19 20 20 20 19 18 19 20 22 24
14 12 12 12 11 11 10 10 9 10 11 10 10 10 10 9 9 9 8 8 8 6 6 5 4 5 5 4 2 2 2 3 4 5 2 2 3 5 5 3 3 3 6 5 3 6 11 14 16 20 21 21 19 18 18 18 16 14 15 15 14 15 15 14 14 14 14 14 15 16 18 20 20 21 21 20 20 20 20 20 19 19 19 20 21
15 13 13 12 11 11 11 11 10 10 11 12 11 12 11 11 11 11 9 9 9 7 5 6 5 4 3 2 1 2 1 2 2 4 1 1 2 4 4 3 3 4 5 7 6 8 12 15 16 17 17 17 18 18 20 22 20 18 17 17 16 17 16 16 16 15 14 14 15 17 19 20 22 22 23 23 22 21 19 19 19 19 20 20 21
16 15 15 14 13 12 12 12 12 11 11 12 13 13 13 12 13 12 11 12 12 10 8 8 7 5 4 4 3 3 3 3 1 2 1 2 2 4 4 3 4 5 5 7 7 8 11 14 15 15 15 16 18 19 20 22 22 21 20 19 19 18 18 17 17 16 16 16 16 17 19 20 21 22 23 24 23 23 22 20 18 18 18 19 21
18 16 15 15 14 14 13 14 14 13 12 13 13 14 14 14 14 14 13 13 14 13 12 11 9 8 7 5 4 4 5 4 2 1 2 3 2 2 3 2 3 4 5 6 8 8 10 12 13 15 17 18 19 19 19 20 20 20 21 21 19 18 18 18 18 19 19 19 19 19 19 19 19 19 19 20 21 23 25 23 20 19 19 19 20
18 17 17 17 16 16 15 15 16 15 15 15 15 16 16 16 16 16 15 15 14 14 15 13 11 11 10 7 6 6 6 5 2 1 2 3 3 3 3 4 4 5 6 7 7 8 9 12 14 15 16 17 18 19 19 19 19 20 21 21 20 20 19 18 19 19 19 18 18 18 17 16 16 16 16 17 18 19 22 23 21 21 21 22 22
16 16 17 17 17 17 18 18 18 19 19 19 19 18 18 18 19 18 18 18 16 15 15 14 12 12 12 9 8 8 7 7 5 3 4 5 5 5 5 6 6 6 8 8 8 8 9 12 15 16 16 16 17 18 18 20 21 21 21 21 20 20 19 18 17 17 17 17 17 17 17 17 17 17 16 16 16 16 19 21 22 23 23 22 23
18 17 16 16 16 17 18 19 20 19 19 19 20 21 20 21 21 21 21 21 18 17 16 15 13 12 12 11 9 9 8 7 7 6 7 7 7 7 7 7 7 8 9 9 9 10 10 12 13 15 16 16 18 18 17 19 21 21 21 21 20 20 20 21 20 19 20 21 21 21 21 21 21 21 19 18 17 18 20 23 25 26 26 25 24
20 20 18 16 15 14 15 17 18 18 17 17 20 23 24 24 24 24 24 23 20 19 18 16 14 14 13 11 9 9 9 9 8 9 9 9 8 7 8 9 10 10 10 10 10 10 11 13 14 16 17 18 18 19 19 19 20 20 22 24 23 22 23 23 24 24 24 24 24 24 24 24 23 21 20 18 18 19 21 24 27 28 29 28 28
21 21 20 19 18 17 17 18 19 21 20 19 22 25 26 27 27 27 26 24 22 21 20 17 16 15 14 12 10 10 10 11 11 10 10 9 8 7 9 11 12 11 10 9 10 10 12 14 16 17 18 19 20 20 20 20 19 19 21 23 23 24 25 25 23 22 23 23 22 21 21 21 20 19 18 18 17 16 17 20 23 26 28 29 30
19 19 19 19 18 19 19 20 21 22 22 21 22 24 25 27 28 27 26 25 23 22 20 18 16 15 14 12 12 11 11 11 11 11 11 10 9 10 12 11 10 10 9 9 9 11 12 14 15 16 18 19 20 21 21 20 19 21 22 23 24 26 27 27 24 20 18 20 20 19 19 20 22 22 21 20 19 17 17 17 18 21 22 25 28
15 15 15 16 18 19 19 20 20 21 22 23 23 23 24 26 26 26 26 26 24 23 21 19 18 16 14 14 13 12 12 12 12 12 11 12 12 13 11 10 9 8 7 7 8 10 11 12 14 15 16 18 19 20 21 22 22 23 24 24 25 25 25 24 23 21 19 20 24 26 24 22 25 27 26 25 25 24 23 20 19 19 20 21 23
12 12 13 14 15 17 19 20 21 21 23 24 25 24 24 26 26 25 26 27 25 24 23 22 20 18 16 15 14 13 12 13 13 13 13 13 14 14 11 9 8 8 7 7 8 9 10 11 13 14 15 17 20 20 20 21 22 23 25 25 23 23 21 18 17 20 22 23 28 33 32 28 28 31 30 29 29 29 29 28 26 25 24 23 22
12 12 13 13 13 14 15 16 18 20 22 23 25 25 25 26 26 25 26 27 26 24 23 23 21 19 17 15 14 13 13 13 14 14 14 14 14 13 11 9 9 9 9 9 9 10 10 12 14 16 17 19 21 21 20 20 22 24 25 25 23 22 21 19 18 21 26 28 29 32 35 34 31 32 33 32 32 33 33 33 33 31 30 27 24
7 9 10 10 10 9 10 12 14 17 21 22 23 25 25 25 25 24 24 27 27 25 23 21 20 18 16 15 14 13 13 13 14 13 13 13 13 12 11 11 11 10 10 10 10 11 12 13 16 18 20 21 21 21 20 21 23 24 24 23 23 23 24 24 24 28 32 33 30 28 32 33 30 29 30 31 30 31 32 33 33 32 32 31 28
2 3 5 7 9 9 10 12 13 16 19 20 20 22 23 23 24 24 24 25 25 23 21 19 18 16 13 13 14 13 12 11 12 11 12 12 12 11 11 12 12 11 11 12 12 12 13 14 17 20 21 22 23 23 21 20 22 23 23 23 24 25 27 29 30 32 34 33 29 26 28 30 28 28 29 28 28 28 28 29 29 28 28 28 28
4 5 5 7 10 12 13 14 14 15 16 15 16 19 20 19 22 25 25 24 22 20 16 14 15 14 12 12 11 10 9 8 8 9 10 11 12 12 12 12 12 12 13 14 14 15 16 17 18 20 21 21 21 20 17 17 19 21 22 24 25 27 30 30 30 29 29 29 26 22 24 28 29 29 30 27 27 27 27 27 27 26 25 26 25
6 7 8 9 10 13 15 16 16 15 14 13 14 14 15 16 20 24 23 21 19 17 14 13 13 13 13 12 11 10 10 10 11 12 13 14 15 14 13 12 12 13 14 15 15 16 17 17 17 18 18 17 16 15 16 17 20 22 24 26 26 27 27 26 25 24 23 23 22 19 23 27 27 27 29 28 27 28 28 26 24 24 25 25 24
7 8 9 10 11 12 14 16 17 15 14 14 13 11 13 18 21 20 19 17 15 14 13 11 9 9 9 10 9 10 12 13 13 14 14 15 15 14 13 13 13 14 14 14 14 13 13 14 16 16 17 16 16 19 21 23 24 26 27 28 26 25 23 20 18 19 20 21 20 20 23 26 24 26 30 30 28 26 23 20 19 20 23 24 23
9 10 10 10 11 12 13 14 16 17 16 15 13 13 17 20 20 17 15 14 12 11 11 8 6 6 8 9 9 11 13 13 13 13 13 13 12 11 11 12 13 14 15 16 16 17 17 19 20 21 23 24 25 27 28 29 30 29 28 29 27 25 23 19 17 19 21 20 19 18 21 24 23 24 25 24 22 20 18 17 19 21 23 24 21
11 11 12 13 14 15 14 14 15 17 17 15 15 17 20 21 20 17 14 12 11 9 7 6 5 7 7 7 8 10 11 11 11 11 10 9 9 10 11 12 15 17 18 19 20 22 23 23 24 25 25 25 24 24 24 24 24 23 23 24 25 24 24 22 20 18 15 14 14 15 18 22 20 18 17 16 13 12 15 19 21 21 22 24 20
Wind_Direction
215 214 209 204 205 210 223 226 220 219 216 209 211 216 220 219 215 217 204 197 213 233 241 222 212 228 211 182 189 189 184 178 170 170 172 162 153 148 159 167 172 172 173 168 169 175 176 177 183 186 183 182 178 177 178 169 168 162 166 205 222 248 305 59 87 91 95 97 92 96 94 94 94 94 96 100 103 104 103 101 103 104 106 105 102
210 213 213 209 206 206 215 221 216 213 213 205 200 205 218 228 221 212 212 207 214 217 209 200 199 236 216 178 130 195 197 200 193 191 198 196 190 180 165 156 163 169 175 175 174 176 180 184 190 195 187 185 182 180 179 176 177 166 168 200 206 223 255 330 109 100 96 100 97 94 93 94 94 96 96 97 102 102 102 102 103 104 106 108 106
205 207 213 210 204 199 200 202 198 196 201 197 190 200 221 231 218 212 228 220 218 217 196 189 197 213 207 198 225 213 209 217 214 209 210 207 203 196 180 172 159 164 182 185 178 177 183 188 190 193 188 185 182 182 180 183 189 172 175 204 205 215 237 266 216 122 106 101 102 98 92 95 94 98 99 97 102 102 102 103 105 106 105 107 108
207 209 215 211 204 198 188 178 184 189 192 192 187 201 210 207 210 223 234 227 224 222 205 189 199 203 195 214 246 232 226 217 211 211 212 207 203 202 193 186 179 171 186 194 187 183 185 188 190 193 197 188 181 182 177 182 196 179 177 205 207 206 224 234 229 174 133 112 105 105 96 96 93 97 102 99 102 106 106 105 106 110 110 110 110
209 209 213 214 212 204 194 173 179 198 200 195 191 196 195 190 211 220 218 215 202 201 200 185 192 205 195 203 224 211 206 184 190 204 211 209 203 204 207 197 190 186 191 198 197 194 190 189 193 197 198 189 186 190 179 176 195 188 178 201 208 198 206 218 220 230 184 145 119 113 106 103 99 98 101 101 103 107 111 108 107 113 116 117 115
205 203 203 213 232 229 207 183 185 212 209 204 203 189 188 203 204 180 177 179 146 142 160 154 161 183 187 187 177 176 176 159 123 88 199 209 204 198 207 209 202 196 198 204 207 206 201 196 196 199 196 190 193 204 210 194 196 197 187 196 205 197 198 209 215 227 227 185 151 131 122 117 115 110 106 108 112 113 112 110 112 116 121 125 125
201 202 198 205 243 244 221 198 201 219 218 220 224 176 187 205 185 174 162 158 152 142 144 147 156 168 180 196 201 196 197 196 176 86 101 197 205 202 201 209 212 210 211 212 215 217 215 209 201 202 204 196 194 200 215 222 206 204 200 195 203 204 200 200 209 225 236 215 186 164 152 140 132 131 130 129 129 128 124 120 121 123 127 130 132
189 196 200 195 228 236 223 219 222 223 223 236 233 190 194 194 156 169 166 162 165 154 151 161 161 160 167 190 204 220 221 232 226 207 88 132 187 208 209 211 215 217 226 229 228 226 223 222 213 209 212 207 205 202 205 217 212 203 206 204 208 213 207 200 203 217 230 228 217 198 180 169 158 153 151 148 148 148 145 144 138 137 139 135 135
182 189 194 179 203 232 225 235 242 208 201 218 211 202 203 200 155 147 164 169 172 168 174 182 168 159 153 177 199 213 221 232 232 230 222 154 145 189 215 223 228 226 229 236 237 235 229 227 224 220 219 216 218 218 205 210 214 207 207 214 218 219 216 210 203 208 224 231 236 229 203 188 181 172 165 161 161 163 168 171 165 160 158 148 143
187 191 191 172 209 239 229 239 242 194 201 212 203 207 213 213 193 155 167 174 176 184 197 201 181 159 142 167 205 219 236 246 239 235 235 217 204 207 208 216 226 231 233 239 241 238 237 232 228 225 224 223 224 227 219 213 217 216 214 216 222 222 220 219 211 206 214 227 238 241 228 212 199 184 176 172 171 170 177 189 191 185 182 173 165
186 197 216 212 224 234 209 216 226 204 218 216 201 206 218 217 199 166 166 173 177 185 192 198 185 150 137 171 235 261 269 272 257 255 256 248 236 234 244 206 192 222 229 234 237 236 239 237 233 232 230 227 228 230 227 224 219 217 221 221 221 223 223 223 221 213 208 217 232 237 243 242 212 189 178 174 179 182 185 196 204 202 199 192 190
159 159 170 187 192 200 180 184 191 186 210 216 206 206 212 213 204 181 164 165 171 183 191 194 175 160 173 222 258 269 272 276 261 259 261 268 266 250 255 265 260 245 212 226 235 239 242 241 237 236 235 233 234 234 230 231 225 214 219 224 220 222 228 233 235 224 214 212 221 233 243 247 226 204 192 186 188 189 195 204 212 214 213 206 204
123 131 129 147 148 137 153 164 172 171 186 208 208 204 209 210 201 193 183 176 171 174 185 187 178 180 199 225 241 247 269 284 256 247 251 258 268 268 269 276 268 264 271 245 241 247 250 249 245 240 238 236 238 240 235 234 233 223 220 222 221 221 228 238 245 236 223 217 217 228 239 245 243 230 222 225 220 207 209 214 217 222 222 218 215
107 106 91 120 155 130 114 134 154 156 161 182 196 201 209 207 199 199 194 190 187 177 181 186 181 177 159 133 163 225 275 344 6 262 260 260 267 274 276 290 290 273 278 291 285 282 278 270 264 250 242 239 240 243 242 239 236 232 227 224 225 223 224 234 244 247 237 229 223 225 235 244 247 244 239 240 240 232 227 228 227 230 231 227 224
153 125 94 94 126 119 99 102 117 132 147 156 170 184 196 199 200 200 191 186 192 188 192 195 163 141 126 99 103 60 3 30 43 27 290 269 268 277 284 294 307 291 282 298 296 285 278 271 274 272 254 247 246 248 250 249 244 238 234 232 230 226 223 228 241 250 246 240 234 227 232 242 245 245 245 244 244 242 240 240 238 239 239 236 233
134 132 114 100 104 110 105 107 108 109 124 132 135 136 163 190 197 195 185 179 177 178 197 197 160 143 126 123 148 89 54 337 29 41 48 330 272 298 302 288 297 300 301 336 342 329 303 278 256 251 263 255 251 254 255 254 252 245 239 238 235 232 226 223 231 240 242 242 240 231 232 241 246 247 248 249 249 247 246 247 246 246 247 245 240
110 120 123 107 103 119 115 106 105 108 115 116 109 99 103 128 166 185 186 182 170 154 170 189 176 170 152 131 110 80 197 293 28 48 52 55 351 54 78 109 119 9 353 350 345 339 333 314 261 242 248 251 253 261 259 254 251 247 243 240 238 236 231 226 225 227 232 237 240 238 236 242 247 248 247 248 249 248 247 247 247 248 248 249 246
108 116 121 111 111 127 121 105 107 115 121 116 103 94 93 89 91 129 166 178 169 148 148 176 186 190 174 141 110 112 153 74 69 48 20 61 82 233 225 210 179 167 96 82 354 339 339 342 312 267 256 252 251 257 260 255 248 245 244 242 239 239 237 234 231 227 228 231 237 241 241 244 249 249 247 246 247 249 249 249 250 250 248 249 248
110 113 118 114 107 117 124 115 110 112 117 119 113 107 106 99 93 96 109 140 155 146 144 156 168 185 195 181 153 124 145 125 135 149 2 51 67 102 222 252 249 246 226 198 244 303 323 330 331 318 294 264 250 250 253 255 254 250 246 245 243 241 238 237 237 233 231 231 235 238 238 242 247 249 250 250 250 252 252 253 253 252 250 248 247
115 112 117 117 101 103 116 117 113 114 117 121 121 119 116 112 109 104 103 111 120 122 125 122 113 120 151 172 176 193 225 231 184 153 125 149 291 319 273 271 265 268 261 251 259 274 292 299 310 318 302 276 251 248 251 250 253 252 247 245 247 244 238 235 237 237 236 235 236 237 238 242 246 250 254 255 255 255 255 255 255 254 253 250 248
115 114 120 121 103 99 106 108 108 114 120 122 123 125 123 119 118 116 112 111 114 114 111 107 102 100 111 130 131 127 116 97 149 190 158 141 253 271 317 334 312 304 287 265 279 297 290 277 275 293 293 279 268 258 257 252 249 252 249 247 249 246 238 233 236 239 240 240 240 241 242 243 245 250 255 257 258 258 256 255 255 254 253 252 250
115 114 119 124 112 102 100 99 99 99 105 111 112 114 117 116 118 120 118 114 117 119 111 105 106 100 102 121 129 128 124 92 57 43 136 123 287 294 349 357 345 342 338 316 308 301 297 279 266 273 287 294 283 265 259 263 263 265 261 255 256 251 241 237 236 239 241 244 246 247 248 247 246 249 253 254 255 257 256 255 254 253 252 252 251
120 118 117 119 117 110 105 104 103 98 97 98 98 102 107 111 116 124 126 119 117 120 116 109 106 99 96 103 106 103 96 77 57 52 56 56 32 349 359 359 354 1 358 343 327 302 295 291 280 275 275 297 306 291 275 273 274 278 272 262 264 264 254 247 244 244 245 246 248 249 250 250 249 250 253 254 253 254 254 253 251 248 246 243 241
127 125 122 119 118 117 116 114 113 109 105 106 107 108 112 114 113 116 123 127 127 127 122 116 109 100 95 95 95 95 89 78 65 55 53 45 40 35 14 10 356 346 350 349 337 321 320 322 318 312 303 312 326 310 293 288 286 288 276 259 257 258 257 255 253 253 250 247 250 253 254 253 250 249 250 253 254 250 249 248 245 242 241 236 234
134 129 125 122 121 123 125 123 120 117 112 110 114 115 116 114 111 109 112 121 127 127 124 121 116 106 98 97 95 93 90 84 75 63 66 65 59 51 19 18 2 338 347 353 350 350 13 28 36 31 22 26 14 332 294 288 290 299 282 258 260 258 263 268 264 264 258 256 259 262 263 261 256 252 249 250 250 248 247 245 244 244 244 240 237
139 132 127 125 127 127 130 132 129 125 118 111 113 115 115 114 111 109 108 111 115 116 118 120 123 117 108 105 100 100 99 95 86 66 73 81 69 59 21 15 6 350 350 349 356 9 27 37 48 47 38 37 35 32 25 318 298 339 349 289 287 278 282 291 286 280 271 268 272 272 272 269 265 261 256 254 251 249 248 248 249 250 249 245 242
142 134 130 132 137 135 133 136 135 132 129 126 127 125 123 119 114 110 106 106 109 109 112 117 123 121 109 101 93 99 108 94 75 53 55 70 68 58 37 29 13 354 348 342 351 2 14 21 28 29 26 25 29 39 46 46 42 27 10 324 325 316 299 296 295 292 284 278 278 278 280 278 272 268 265 264 260 255 253 252 253 253 251 248 245
148 140 139 145 151 146 142 140 139 141 139 138 141 142 137 128 121 117 109 106 107 107 109 115 120 116 106 95 78 80 91 74 51 45 49 53 61 50 28 26 30 347 330 344 348 336 357 10 6 360 10 14 13 18 21 16 15 16 8 342 328 326 314 304 301 301 294 286 280 277 282 284 281 277 272 270 269 266 263 259 257 256 254 253 251
155 150 153 162 164 157 155 150 145 146 145 147 153 153 149 137 129 126 122 123 118 107 106 109 115 117 111 103 78 64 70 67 58 56 57 57 61 53 21 13 22 20 350 336 332 302 334 357 2 348 350 356 355 353 354 352 350 355 355 339 325 320 316 311 310 309 304 295 286 282 284 286 284 281 277 275 273 272 271 266 262 260 258 257 255
161 158 163 172 175 168 166 164 159 152 150 160 167 162 161 151 142 143 147 150 140 122 120 113 111 123 121 113 95 58 65 70 61 54 54 55 57 52 20 2 7 17 20 332 314 308 330 343 347 340 338 339 339 337 340 344 342 340 338 331 323 313 303 296 296 296 298 298 291 284 283 286 288 285 282 280 278 276 275 274 269 264 262 260 258
168 167 170 178 181 179 179 177 175 167 164 176 182 176 180 177 167 168 166 161 154 148 154 145 120 123 126 127 115 63 79 92 85 78 51 32 33 26 19 24 20 356 340 334 295 302 327 335 332 329 331 332 334 338 342 346 343 335 328 324 318 310 302 296 289 286 287 290 291 287 285 287 288 286 282 281 281 279 276 275 274 270 265 263 260
176 176 180 187 187 186 189 190 190 184 178 184 191 187 192 197 189 188 184 171 173 175 168 165 150 130 127 137 132 23 79 115 122 126 119 339 348 344 335 337 354 328 313 310 273 290 316 326 323 325 331 334 339 345 342 337 332 327 324 324 322 316 313 310 302 294 290 290 291 292 291 290 288 285 281 277 277 279 277 274 273 271 269 266 263
184 188 192 197 198 194 195 199 203 200 193 194 201 200 201 207 204 204 201 185 194 209 190 176 178 165 161 170 211 286 322 50 123 154 137 45 45 4 350 332 346 354 331 317 296 294 313 322 322 327 335 339 339 338 333 328 327 328 329 329 328 324 321 318 313 308 303 300 297 295 293 291 290 288 284 278 273 272 274 274 272 271 270 269 267
194 199 200 203 206 204 203 207 210 211 210 207 209 209 210 214 214 214 210 197 201 217 209 198 205 210 205 191 191 232 271 330 10 145 55 35 52 26 32 49 23 16 5 344 329 313 316 325 329 330 332 334 330 326 326 326 327 328 326 324 324 321 318 315 314 313 311 308 304 302 298 295 293 292 289 283 275 268 266 268 270 271 272 271 270
199 201 203 205 207 208 210 211 212 216 221 221 221 220 218 221 223 221 220 211 207 213 213 208 215 222 218 208 202 221 254 288 336 37 6 356 339 326 348 8 357 351 349 349 349 340 328 327 332 331 330 329 325 323 323 322 322 322 320 320 320 319 317 315 313 312 311 310 309 307 305 303 302 301 297 290 280 269 262 262 266 269 273 275 276
195 199 204 205 206 209 210 210 213 217 221 223 227 228 226 226 228 226 226 222 216 217 218 215 217 223 222 218 212 223 251 266 277 315 307 299 293 287 298 308 313 319 321 326 336 343 338 330 328 328 329 327 322 322 323 323 323 321 319 320 320 319 318 315 312 310 310 309 309 311 311 309 310 311 307 300 291 277 264 262 266 270 273 277 278
193 194 196 198 201 204 206 207 211 216 221 223 224 228 231 230 229 229 229 228 224 222 223 219 218 221 217 210 206 215 237 247 244 257 262 259 271 281 291 298 298 302 309 315 319 326 333 333 328 324 325 327 324 324 327 330 328 323 320 320 320 321 319 316 313 313 314 313 310 312 314 313 313 313 312 307 298 286 273 267 268 270 272 275 279
212 209 205 201 198 196 199 207 212 215 219 224 226 228 232 231 228 227 229 230 228 225 225 223 221 218 208 200 206 213 221 229 230 237 245 252 265 278 287 294 296 298 303 311 314 317 323 327 326 323 323 325 326 326 328 333 333 331 333 331 324 320 320 319 316 313 314 316 313 311 313 315 315 314 315 313 305 294 284 278 275 274 273 274 276
227 229 231 230 224 215 209 214 225 229 224 224 228 229 229 229 227 224 225 227 227 225 224 223 220 216 211 209 216 220 223 230 233 233 241 250 256 268 283 291 294 296 301 309 313 318 324 325 324 324 321 319 321 322 322 324 324 329 340 343 334 326 322 321 320 317 316 315 312 309 310 313 314 314 314 314 311 305 296 288 283 279 277 277 277
240 245 248 249 246 241 233 230 238 239 229 223 228 229 228 228 226 223 222 222 222 221 219 218 217 217 221 227 227 225 229 238 242 244 248 249 250 270 291 293 290 291 297 305 313 320 326 326 323 324 324 320 321 324 326 328 329 330 336 340 335 330 326 322 319 321 323 321 317 312 310 311 312 312 314 313 313 315 311 302 295 288 282 278 277
250 255 257 255 251 249 246 243 240 235 229 229 234 235 231 228 225 224 222 220 219 217 213 212 214 217 222 226 225 227 235 244 249 252 253 253 264 288 300 297 290 289 291 300 316 327 330 327 325 326 327 323 324 329 329 331 333 330 328 329 327 326 327 323 316 317 324 324 321 317 311 312 315 312 310 310 308 311 316 316 315 311 301 292 286
248 254 257 256 255 255 257 256 250 242 238 238 242 243 238 231 225 223 223 221 218 213 208 207 210 213 217 219 222 230 240 248 253 255 258 264 277 292 299 299 295 293 294 303 318 328 327 322 321 322 319 315 317 322 321 320 322 323 323 326 327 325 328 327 317 312 314 317 321 320 310 309 317 315 309 305 302 303 307 310 313 317 316 312 305
242 247 251 253 255 258 262 262 259 254 249 246 246 246 242 233 227 225 223 220 215 210 207 207 208 211 214 219 226 235 243 249 252 256 263 272 283 292 296 297 292 287 289 299 308 314 310 306 308 308 304 301 305 309 310 312 316 318 318 321 324 325 328 330 319 310 309 313 321 320 310 303 310 312 306 303 300 299 302 303 305 306 307 310 311
240 241 243 246 250 254 258 260 261 258 255 253 251 251 247 236 228 226 223 217 211 207 207 208 211 214 218 222 227 233 239 244 250 255 263 271 280 288 291 289 281 275 278 285 292 297 298 296 296 296 295 294 297 301 302 304 308 311 313 314 314 316 319 318 311 307 309 314 319 317 307 302 306 307 303 301 299 298 298 299 300 300 298 300 304
237 238 239 244 251 259 263 265 266 264 259 257 257 259 255 240 228 225 222 214 209 206 205 206 210 213 217 222 226 231 238 244 249 252 258 267 276 281 282 279 272 269 272 278 285 292 294 293 291 294 298 296 294 295 298 301 303 303 303 303 303 305 307 306 303 302 306 311 315 312 304 302 306 306 301 301 301 301 300 299 299 298 295 293 292
246 244 245 251 255 263 273 274 270 264 260 261 262 261 256 243 230 224 218 210 204 200 198 200 203 205 210 218 223 226 232 241 248 252 256 264 270 271 269 266 264 266 271 278 284 288 290 292 291 295 302 301 297 298 301 301 299 296 296 297 299 300 300 298 298 300 301 304 308 306 299 300 306 303 298 299 302 302 303 305 305 303 299 295 290
289 279 276 271 258 250 252 259 261 260 261 266 266 260 254 241 224 216 209 200 194 191 190 196 202 203 206 209 211 215 226 241 253 258 261 264 265 265 263 260 262 268 273 278 285 289 293 296 295 297 303 304 301 299 298 296 292 290 290 292 296 298 297 295 294 296 298 299 303 301 293 296 302 299 295 298 301 301 302 305 307 308 304 300 295
290 279 271 271 270 259 248 244 247 253 260 265 264 256 244 222 206 201 198 192 189 187 191 200 204 204 210 217 224 238 253 262 266 266 268 269 267 267 266 265 268 272 277 282 288 291 293 292 289 292 298 301 300 296 294 294 292 292 292 292 295 298 298 295 291 292 295 297 300 299 291 294 299 296 294 299 302 302 305 306 307 310 310 306 299
292 287 271 263 266 268 257 243 236 239 249 255 249 232 213 201 193 188 186 184 180 178 181 189 195 202 220 236 250 261 262 260 259 259 260 260 259 259 261 265 270 274 278 283 284 282 280 275 274 278 283 286 288 288 290 292 291 293 296 296 298 300 299 293 288 290 293 293 298 300 291 288 292 291 291 296 299 302 309 311 309 312 317 318 307
287 291 287 276 269 268 264 251 239 234 236 237 225 205 197 195 189 179 174 174 173 177 186 195 209 225 235 244 251 254 252 248 249 250 251 252 254 259 267 274 280 283 285 288 287 283 279 277 277 279 280 282 285 286 287 287 287 289 291 292 294 294 290 284 285 292 293 290 297 302 290 285 291 292 294 302 305 307 313 313 313 321 331 335 321
279 284 288 282 271 265 265 259 245 231 225 217 204 195 193 192 189 182 175 169 162 167 184 195 205 221 228 232 241 245 243 243 246 249 253 260 269 279 289 296 301 301 300 300 298 296 295 294 294 295 295 296 297 296 296 295 293 292 291 290 291 288 282 279 282 289 291 288 295 300 290 290 299 303 310 322 318 311 318 316 314 326 340 345 335
Height
820 821 822 823 824 825 826 827 827 828 828 828 829 829 830 831 832 832 833 833 834 835 835 836 837 838 839 839 839 840 840 840 841 842 842 842 843 843 844 843 843 842 843 844 844 845 845 845 845 845 846 847 848 848 849 850 851 852 852 852 852 853 854 854 854 854 854 854 854 854 853 853 854 854 854 854 854 854 854 855 855 855 855 855 855
819 820 822 823 823 824 825 826 827 827 828 828 828 828 829 830 831 832 832 833 833 834 835 836 837 837 838 838 839 840 840 840 840 841 841 841 842 843 843 843 843 843 843 843 844 844 845 845 845 845 845 846 847 848 848 849 850 851 852 852 852 853 853 854 855 854 854 854 854 854 854 854 854 854 854 855 855 855 855 855 855 855 855 856 856
819 820 821 822 823 824 825 826 826 827 827 827 828 828 829 829 830 831 832 832 833 834 835 836 837 837 838 838 839 840 840 840 839 839 840 841 841 842 842 842 842 842 843 843 844 844 845 845 845 845 845 845 846 847 848 848 849 850 851 852 852 852 853 854 854 855 855 855 855 855 855 855 855 855 855 855 855 856 856 856 856 856 856 856 856
819 820 820 822 823 824 824 825 825 826 827 827 827 828 828 829 829 831 831 832 833 834 835 836 836 837 837 838 838 839 839 840 839 838 839 839 840 841 841 841 842 842 843 843 844 845 845 845 845 845 845 845 845 846 847 847 848 849 850 851 851 852 852 853 854 855 855 855 855 855 855 855 855 855 855 855 856 856 856 856 856 856 857 857 857
819 819 821 822 824 825 825 824 825 826 826 827 827 827 828 829 829 830 830 832 833 833 834 835 836 836 837 837 837 838 838 838 839 838 838 838 839 839 840 841 841 842 843 843 844 844 845 845 845 845 845 845 845 846 846 846 847 848 849 850 850 851 852 852 853 854 855 855 855 855 856 856 856 856 856 856 856 856 856 856 857 857 857 857 857
818 819 820 822 824 825 824 824 824 824 825 826 826 827 828 829 829 829 830 831 831 831 832 833 834 834 835 836 836 836 836 837 838 838 838 838 838 838 839 840 841 841 842 843 843 844 844 845 845 845 845 846 846 846 846 846 846 847 848 848 849 850 851 851 852 853 854 855 855 855 855 856 856 856 856 856 856 856 856 856 857 857 857 857 857
817 818 819 820 822 822 823 823 822 823 824 824 827 828 828 828 828 828 828 828 829 829 829 830 830 831 832 833 834 835 835 836 837 837 838 838 838 838 838 839 840 841 841 842 842 843 844 844 845 845 845 845 845 846 846 846 846 846 847 847 848 848 849 850 851 852 853 854 854 855 855 855 856 856 856 856 856 856 856 856 857 857 857 857 857
816 817 818 819 820 820 821 822 823 824 823 824 827 829 828 828 828 828 828 827 827 827 828 828 829 829 830 831 832 833 834 835 836 836 837 838 839 839 838 838 839 840 840 841 841 842 843 844 844 844 844 845 845 845 846 846 846 846 847 847 848 848 848 849 850 851 852 853 854 854 854 855 855 856 856 856 856 856 856 856 857 857 857 857 857
815 817 819 821 820 819 819 820 823 823 823 823 825 826 826 827 828 827 828 827 827 827 828 829 830 830 830 831 831 832 833 834 834 835 836 837 838 839 839 839 839 839 839 840 840 841 842 843 843 844 844 845 845 845 845 845 845 846 847 847 848 848 848 848 849 850 851 852 853 853 854 854 855 855 856 856 856 856 856 856 857 857 857 857 858
815 816 817 819 820 819 819 820 822 822 822 822 823 824 825 827 827 827 827 827 827 827 828 829 831 831 830 831 832 832 833 833 833 834 835 835 836 838 838 839 839 839 839 839 840 840 841 842 842 843 844 844 844 844 845 845 845 845 846 847 847 848 848 848 848 849 850 851 852 853 853 854 854 855 856 856 856 856 856 856 857 857 857 858 858
815 815 815 818 820 821 821 823 823 823 823 822 822 823 825 826 826 826 827 828 827 827 828 829 830 831 831 832 832 833 833 832 832 832 833 834 835 836 837 838 838 839 839 839 840 840 840 841 841 842 843 843 843 844 844 844 844 845 845 846 847 847 847 848 848 849 850 851 852 852 853 853 854 855 855 856 856 856 856 856 856 857 857 857 858
817 817 818 820 821 821 822 824 824 824 824 824 823 824 825 826 826 827 828 828 828 828 829 829 830 831 832 832 833 833 833 832 832 832 832 833 834 835 835 836 837 838 838 839 840 840 840 840 841 841 841 842 842 843 843 844 844 844 845 845 846 846 847 847 848 848 849 850 851 852 852 853 853 854 855 856 856 856 855 855 856 856 857 857 857
816 818 819 820 821 821 822 823 824 825 825 825 825 825 825 826 827 828 828 829 829 829 829 830 831 832 832 832 833 833 833 832 832 832 832 833 833 834 834 835 836 837 837 838 839 839 839 840 840 841 841 841 841 842 842 843 843 843 844 844 845 845 846 846 847 848 848 850 851 851 851 852 853 854 855 855 856 855 855 855 855 856 856 856 857
815 817 818 819 819 820 821 822 823 824 824 825 825 825 825 826 827 828 829 829 829 829 829 830 831 831 832 832 833 833 833 832 832 831 832 832 833 833 834 834 835 835 836 837 837 838 838 838 838 839 840 841 841 841 841 842 842 842 842 843 844 844 845 846 846 847 848 849 850 851 851 851 852 853 854 855 855 855 855 855 855 855 855 856 856
817 818 818 819 820 820 821 822 823 823 823 824 824 825 825 825 826 827 828 828 828 829 829 829 830 831 832 832 833 833 833 832 831 831 831 832 832 833 833 834 834 835 835 835 836 836 836 837 837 838 839 840 840 840 840 841 841 841 841 842 842 843 844 845 846 846 847 848 849 850 850 850 851 852 853 853 854 854 854 854 855 855 855 856 856
818 820 820 820 821 821 822 822 822 823 823 823 824 824 824 824 825 826 826 827 827 828 828 829 829 830 831 832 833 833 834 832 831 831 831 832 833 833 833 834 834 835 835 835 835 835 835 836 836 836 837 838 839 839 839 839 839 839 840 841 841 842 843 844 845 845 846 846 847 848 848 849 849 850 851 852 853 854 854 854 854 855 855 855 856
820 821 821 822 822 822 823 822 822 822 823 823 823 823 823 824 824 825 825 826 826 827 828 828 829 829 830 831 832 833 834 832 831 832 832 832 833 833 833 834 835 835 834 835 835 836 836 835 835 835 835 836 837 838 837 837 837 837 838 839 840 841 841 842 843 844 844 844 845 846 847 847 848 849 850 851 852 852 853 853 854 854 854 854 855
821 821 822 822 823 823 823 823 822 822 822 823 823 823 823 823 824 824 824 825 825 826 827 828 828 829 829 829 830 831 832 831 832 833 833 832 833 833 834 834 835 835 834 834 835 836 836 835 834 834 834 834 835 836 836 835 835 835 836 837 838 838 839 840 841 842 843 843 844 844 845 846 847 848 849 850 850 851 851 852 852 853 853 853 854
821 822 822 823 823 823 823 823 822 822 822 823 824 824 824 824 824 824 824 824 824 825 825 827 827 828 829 829 829 830 831 831 832 833 834 834 833 833 834 834 835 834 833 833 834 834 835 834 834 833 833 833 833 834 834 833 833 833 834 835 836 836 837 837 838 840 841 842 842 843 844 845 845 846 847 848 849 849 850 850 851 851 852 852 852
821 822 822 823 823 823 823 823 823 823 823 824 824 824 824 824 824 824 824 824 824 824 825 826 826 827 828 829 829 830 831 831 832 832 834 835 834 833 834 834 834 833 832 832 832 833 833 834 833 832 832 832 832 832 832 832 831 831 832 833 834 834 834 835 836 837 839 840 841 841 842 843 844 845 845 846 847 848 848 848 849 849 850 851 851
821 822 822 824 824 824 824 824 824 824 824 825 825 825 825 824 824 824 824 824 825 825 825 826 827 827 828 828 829 830 831 831 832 832 833 834 834 834 833 833 832 831 831 831 831 831 832 832 832 831 831 831 831 831 831 831 831 830 831 832 832 832 833 834 834 835 837 838 839 840 840 842 843 843 843 844 844 845 846 846 847 848 848 849 849
820 822 822 823 824 825 824 825 825 825 825 825 825 826 826 825 825 825 825 825 826 826 827 827 828 828 828 829 829 830 831 832 833 833 832 833 834 834 833 833 832 831 831 831 831 831 831 830 830 830 830 830 830 830 829 829 830 830 830 830 831 831 831 832 833 833 834 836 837 838 839 840 841 842 841 841 842 842 843 844 845 845 846 847 847
820 821 823 823 824 825 825 826 826 827 827 826 827 827 827 827 827 827 827 827 827 827 828 828 829 829 829 830 830 831 832 833 833 833 833 833 834 834 834 833 833 832 831 831 831 831 830 830 830 830 830 829 829 828 828 828 829 829 829 829 830 830 831 831 831 832 832 833 834 836 837 838 839 839 839 839 840 840 841 841 842 843 843 844 845
819 821 822 824 825 825 826 827 827 827 828 828 828 828 828 828 828 828 828 828 829 829 829 829 830 830 830 831 832 832 833 833 833 833 833 834 834 835 835 834 833 832 831 830 830 830 830 830 829 829 829 829 828 827 826 827 827 827 828 828 829 829 830 830 830 831 831 832 833 833 834 835 836 837 837 837 837 838 839 839 840 840 840 841 843
818 820 822 823 824 825 826 827 828 828 828 829 829 829 829 829 829 829 830 830 830 830 830 830 830 831 831 832 832 833 833 833 833 833 834 834 834 835 835 835 834 833 831 830 830 830 830 830 830 829 829 829 827 826 825 825 826 826 827 828 828 829 829 829 829 829 830 831 831 832 832 832 833 834 834 834 835 836 837 837 837 837 837 838 840
818 820 821 823 824 825 826 827 828 829 829 829 830 830 830 830 830 830 831 831 831 831 831 831 831 832 832 832 833 833 833 834 834 834 834 834 834 835 835 834 834 833 832 831 830 829 830 830 829 829 829 828 827 826 825 826 826 827 827 828 828 828 828 828 828 829 829 830 830 830 830 830 831 831 832 832 832 833 833 833 834 834 834 835 836
818 820 821 822 823 825 826 827 828 829 830 830 831 831 831 831 832 832 832 832 832 832 832 832 832 832 833 833 833 834 834 834 834 834 835 835 835 835 835 835 835 834 832 831 830 829 830 830 829 829 828 828 828 827 827 827 827 827 828 828 828 828 828 827 828 828 828 829 829 829 829 829 829 830 830 830 830 831 831 831 831 831 831 833 833
818 819 821 822 823 824 826 827 828 829 830 831 832 832 833 833 833 833 833 833 833 833 833 833 834 834 834 834 834 834 835 835 835 835 835 835 835 836 836 836 836 836 834 833 831 830 829 830 829 829 829 829 829 829 828 828 828 828 828 828 828 828 827 827 826 826 827 827 827 828 828 828 828 828 828 829 829 829 829 829 829 829 829 830 831
817 819 820 822 823 824 826 827 828 829 831 832 832 833 834 834 834 834 835 835 835 835 835 835 835 835 835 835 835 835 836 836 836 836 836 836 836 836 837 837 837 837 837 836 834 832 830 830 830 830 829 830 830 829 829 829 828 828 827 827 827 827 826 825 825 825 825 826 826 826 826 826 827 827 827 827 827 827 827 826 827 827 827 828 828
816 818 820 821 823 824 825 827 828 830 831 832 833 833 834 835 835 835 836 836 836 836 837 837 837 837 837 837 837 837 837 837 837 837 837 837 837 837 837 837 837 837 837 837 836 834 831 831 831 830 829 829 829 829 829 828 828 827 826 826 825 825 824 824 824 824 824 824 825 825 825 825 825 825 825 825 825 825 824 824 824 825 825 825 826
816 817 819 820 822 824 825 827 828 830 831 832 833 834 834 835 835 836 836 837 837 837 837 838 838 838 838 838 838 838 838 837 837 837 837 838 838 837 837 837 837 837 837 837 837 835 833 832 831 830 829 828 827 827 827 828 827 826 826 825 824 824 823 823 823 823 823 823 823 823 824 823 823 823 822 822 822 822 822 822 822 823 823 823 824
815 816 818 820 821 823 825 827 828 830 831 832 833 834 834 835 835 836 836 837 837 837 837 838 838 838 838 838 838 838 838 838 837 837 837 837 837 837 837 837 837 837 837 837 837 835 834 833 832 831 829 828 827 826 826 825 825 825 824 824 823 822 822 821 821 821 821 821 821 821 821 821 821 820 820 820 820 820 820 820 820 820 821 821 821
814 815 817 818 820 822 824 826 828 829 831 832 833 834 835 835 835 836 836 836 837 837 837 838 838 838 839 839 839 839 839 838 838 838 837 837 837 837 837 837 837 837 837 836 836 835 833 833 833 832 831 829 828 826 825 824 823 823 823 822 822 821 821 820 820 819 819 819 820 819 819 819 818 818 818 818 818 818 818 818 818 818 819 819 819
812 813 815 817 819 821 823 825 827 828 830 832 833 834 835 836 836 836 836 836 836 837 837 837 838 838 839 839 839 839 839 839 839 838 838 838 837 837 836 837 836 836 836 836 835 834 833 833 832 832 831 830 829 827 826 825 824 823 822 821 821 820 820 819 819 819 818 818 818 818 817 817 816 815 815 815 815 815 816 816 816 816 817 817 817
812 812 814 815 817 819 822 824 825 827 829 831 832 834 834 835 836 836 836 836 836 836 836 836 837 837 838 838 839 839 839 839 839 839 838 838 838 837 836 836 836 835 835 835 834 834 833 832 832 832 831 830 829 828 827 826 825 823 822 821 820 820 819 819 818 818 817 817 816 816 815 814 813 813 812 812 812 812 813 814 814 814 814 814 815
811 812 812 814 815 817 819 822 823 825 827 828 830 832 833 834 835 836 836 836 836 836 836 836 836 836 836 837 837 838 838 838 838 838 838 838 838 837 836 836 836 835 835 835 834 834 833 832 831 831 831 830 829 828 827 826 825 823 822 820 820 819 818 817 817 816 815 815 814 813 812 812 811 810 810 810 809 809 810 811 812 812 812 812 812
810 810 811 812 813 814 816 819 820 821 822 824 826 828 831 832 833 834 835 835 835 835 835 835 835 835 835 835 836 837 837 837 838 838 838 837 837 837 836 836 835 835 834 834 834 833 833 832 831 830 830 830 828 827 827 825 824 822 821 820 819 817 816 815 815 814 813 812 811 811 810 810 809 809 808 808 808 808 808 809 809 809 809 809 809
809 810 810 811 812 812 813 815 817 818 819 821 823 825 827 828 830 831 832 833 834 834 834 834 834 834 834 835 835 836 836 836 837 837 837 837 836 836 836 836 835 834 834 833 833 832 832 831 830 830 829 828 828 826 826 825 823 821 820 818 817 816 815 813 812 812 811 810 809 809 809 808 808 807 807 806 806 807 807 807 807 807 807 807 807
807 808 809 810 811 811 812 813 816 818 818 819 821 822 822 824 825 827 828 830 831 832 833 833 834 834 834 834 835 835 836 836 836 836 836 836 836 836 836 835 835 834 833 833 832 831 831 830 830 829 828 827 827 826 825 824 823 821 819 817 815 814 813 812 811 810 809 809 808 807 807 807 806 805 805 805 805 805 805 805 804 804 804 804 804
805 806 807 808 809 810 811 811 813 815 816 816 817 818 819 820 822 823 825 826 828 829 831 832 832 833 833 834 834 834 835 835 835 835 835 836 836 835 835 835 834 834 833 832 832 831 830 830 829 828 827 826 825 825 824 823 822 821 820 818 816 814 813 811 811 810 809 807 806 805 805 804 804 803 803 803 803 803 802 802 801 801 801 801 800
804 805 805 806 807 807 808 809 810 812 813 813 814 815 817 818 820 821 823 824 825 827 829 830 831 831 832 832 833 833 834 834 834 835 835 835 835 835 834 834 834 833 833 832 832 831 830 829 828 827 826 825 824 823 823 822 822 821 820 819 816 814 813 811 810 810 809 807 805 804 804 803 802 801 801 801 800 801 800 799 799 798 798 798 797
803 804 804 804 804 805 806 807 809 810 811 811 812 813 815 817 818 820 821 822 823 825 826 828 829 829 830 831 832 832 833 833 834 834 834 834 834 834 834 833 833 833 832 832 831 831 830 829 829 828 826 825 824 824 822 821 821 820 819 818 816 814 813 811 809 809 809 807 804 802 802 802 801 800 799 799 798 798 798 797 797 796 796 795 794
803 802 803 803 803 803 804 805 806 807 808 809 810 811 813 815 816 817 818 820 821 822 823 824 826 827 828 829 830 831 832 832 833 833 833 833 833 833 833 832 832 832 832 832 831 831 830 830 829 828 827 825 824 824 823 821 820 819 818 817 816 814 813 811 809 808 808 807 805 802 800 800 801 798 797 797 796 795 795 795 795 794 793 793 792
801 801 801 801 801 802 803 803 804 805 806 807 808 809 810 812 813 814 815 817 818 819 820 822 824 826 827 828 828 829 830 831 831 832 832 832 832 831 831 831 831 832 831 831 830 830 830 829 828 828 827 825 824 823 823 821 820 819 817 816 815 813 812 811 809 807 806 807 806 802 798 798 800 798 795 795 794 793 792 791 791 791 790 790 789
800 800 800 800 800 801 801 801 802 802 804 805 806 807 808 810 811 812 813 814 815 816 818 820 822 824 825 826 827 827 828 829 830 830 830 830 830 830 830 830 830 830 830 830 829 829 828 828 827 826 825 824 823 822 822 821 819 818 817 815 814 813 811 810 808 806 805 805 805 802 796 795 798 796 793 793 792 791 790 789 787 786 785 785 785
799 798 799 799 799 800 800 800 800 801 803 804 805 806 806 807 809 810 811 812 813 814 817 818 820 822 823 824 825 825 826 827 828 829 829 828 828 828 828 828 829 829 829 829 828 828 827 826 825 824 824 823 822 820 820 820 819 817 816 814 813 811 810 808 806 805 804 804 804 801 794 792 795 793 790 790 790 789 788 787 786 784 782 781 781
798 798 799 799 799 799 799 800 800 801 802 804 804 804 804 805 807 808 809 810 812 814 816 818 820 821 822 823 824 824 825 826 827 827 827 827 827 826 826 826 827 827 827 827 827 826 826 825 824 823 822 821 820 819 819 818 817 816 815 813 812 810 807 805 804 803 803 802 803 801 793 790 793 790 786 788 788 786 786 786 784 783 781 779 778
798 798 798 799 799 799 799 799 800 801 802 802 802 803 803 804 805 806 808 809 810 813 816 819 820 820 821 822 822 823 824 825 826 826 826 826 826 825 825 825 825 825 825 825 825 825 824 823 822 821 820 819 818 817 817 816 814 813 812 810 809 808 805 802 801 801 801 800 801 801 794 790 792 789 784 785 785 783 783 783 782 781 779 777 776
797 797 798 798 798 798 797 797 798 800 800 800 801 802 803 804 805 806 808 809 810 813 816 818 818 819 820 821 820 822 823 824 824 825 825 825 824 824 823 823 823 823 823 823 823 822 822 821 820 819 818 817 816 815 814 814 812 811 809 806 805 806 804 801 798 798 798 798 798 799 794 789 790 788 783 782 783 781 780 780 780 779 777 774 773
796 796 796 796 796 796 796 796 797 797 799 799 800 802 803 804 805 807 808 809 811 813 815 817 818 818 818 818 819 820 821 822 822 823 823 823 823 822 822 821 821 820 821 821 820 819 819 818 817 817 815 814 813 812 811 810 809 809 807 804 803 803 801 799 797 796 795 795 796 796 793 788 788 787 783 780 779 779 779 778 777 776 774 772 770
795 795 795 795 794 794 794 795 795 796 797 798 799 801 802 804 805 806 807 809 811 813 815 816 817 817 816 816 817 819 820 821 821 821 821 821 821 821 820 820 819 818 818 818 817 816 816 814 814 813 812 811 810 809 808 807 806 805 804 802 802 801 799 797 797 795 793 791 793 795 791 787 786 786 783 781 778 776 777 777 775 774 773 771 769